Location: Vaughan
(31.9146°N, 97.1736°W)
Time: 23:02:03
(UTC+00:00)

Cosmos 2142 Rocket - Pass Details

Date: 10 December 2025
Orbit: 951 x 1005 km, 83.0° (Epoch: 19 January)

Event Time Altitude Azimuth Distance (km) Brightness Sun altitude
Exits shadow 10:56:53 42° 4° (N) 1,358 5.1 -29.2°
Maximum altitude 10:59:10 79° 84° (E) 985 4.5 -28.8°
Drops below altitude 10° 11:05:18 10° 171° (S) 2,679 7.0 -27.5°
Sets 11:07:46 0° 173° (S) 3,616 7.7 -27.0°
